{"data":{"norad_id":63933,"intl_designator":"2025-098H","name":"STARLINK-33877","alt_names":[],"object_type":"PAYLOAD","status":"ACTIVE","operator":null,"country":"US","launch_date":"2025-05-13","launch_site_code":"AFWTR","launch_vehicle":null,"mission":null,"orbit_class":"UNKNOWN","rcs_meters":null,"size_class":null,"mass_kg":null,"dimensions":null,"purposes":["comms"],"wikipedia_slug":null,"has_3d_model":false,"image_url":null,"decayed_at":null,"tle_current":{"epoch":"2026-05-25T02:47:45.635424Z","epoch_age_seconds":55208,"freshness":"FRESH","line1":"1 63933U 25098H   26145.11650041  .00005371  00000+0  45743-3 0  9995","line2":"2 63933  70.0011  81.6217 0002978 268.2944  91.7874 14.98343300 58027","mean_motion":14.983433,"eccentricity":0.0002978,"inclination_deg":70.0011,"raan_deg":81.6217,"arg_perigee_deg":268.2944,"mean_anomaly_deg":91.7874,"bstar":0.00045743,"rev_number":5802,"period_min":96.106146034757,"perigee_km":569.94500690102,"apogee_km":574.08451729052,"semimajor_km":6950.1517620958,"source":"CELESTRAK","updated_at":"2026-05-25T13:38:20.183861Z"}}}